GW5214 Weather Reports


Display with metric or nautical units.
time (UTC)temp
F
wind
direction
speed
MPH
gust
MPH
rain 1hr
in
rain 24hr
in
rain mn
in
humidity
%
barometer
mb
20260505080044 55 66 0.0 3.0 0.00 0.00 0.00 59 1001.1
20260505074509 56 150 3.0 7.0 0.00 0.00 0.00 58 1001.4
20260505073047 56 96 0.0 3.0 0.00 0.00 0.00 59 1001.6
20260505071520 56 188 1.0 9.0 0.00 0.00 0.00 59 1001.6
20260505070039 56 179 0.0 6.0 0.00 0.00 0.00 58 1001.7
20260505064516 57 257 1.0 3.0 0.00 0.00 0.00 57 1001.8
20260505063038 58 200 1.0 4.0 0.00 0.00 0.00 55 1001.8
20260505061510 59 251 1.0 4.0 0.00 0.00 0.00 49 1001.3
20260505060037 60 319 2.0 5.0 0.00 0.00 0.00 47 1001.1
20260505054505 60 306 0.0 3.0 0.00 0.00 0.00 45 1000.8
20260505053051 60 292 1.0 4.0 0.00 0.00 0.00 45 1000.8
20260505051506 60 207 0.0 4.0 0.00 0.00 0.00 45 1000.7
20260505041602 60 261 0.0 4.0 0.00 0.00 0.00 41 999.6
20260505040040 60 12 0.0 1.0 0.00 0.00 0.00 41 999.4
20260505034601 61 13 1.0 3.0 0.00 0.00 0.00 40 999.2
20260505033031 62 355 0.0 1.0 0.00 0.00 0.00 39 999.1
20260505031559 62 355 1.0 2.0 0.00 0.00 0.00 37 998.9
20260505030027 62 35 0.0 3.0 0.00 0.00 0.00 37 998.7
20260505024555 62 355 0.0 2.0 0.00 0.00 0.00 37 998.5
20260505023023 64 336 0.0 2.0 0.00 0.00 0.00 35 998.4
20260505021559 64 225 0.0 1.0 0.00 0.00 0.00 32 998.2
20260505020022 64 224 0.0 2.0 0.00 0.00 0.00 35 998.0
20260505014550 65 220 2.0 5.0 0.00 0.00 0.00 35 997.9
20260505013019 66 211 0.0 3.0 0.00 0.00 0.00 35 997.8
20260505011553 67 221 0.0 3.0 0.00 0.00 0.00 36 997.9
20260505010014 68 242 1.0 3.0 0.00 0.00 0.00 31 997.9
20260505004545 69 241 1.0 6.0 0.00 0.00 0.00 31 998.0
20260505003013 69 202 1.0 4.0 0.00 0.00 0.00 31 998.1
20260505001545 70 245 2.0 5.0 0.00 0.00 0.00 32 998.3
20260505000012 70 263 1.0 4.0 0.00 0.00 0.00 34 998.3
20260504234543 70 201 2.0 7.0 0.00 0.00 0.00 34 998.4
20260504233012 71 244 3.0 8.0 0.00 0.00 0.00 32 998.5
20260504231542 71 281 3.0 6.0 0.00 0.00 0.00 35 998.2
20260504230010 70 250 2.0 6.0 0.00 0.00 0.00 28 998.2
20260504224542 73 18 3.0 6.0 0.00 0.00 0.00 25 998.2
20260504223009 73 208 1.0 4.0 0.00 0.00 0.00 25 998.2
20260504221541 73 269 3.0 8.0 0.00 0.00 0.00 23 998.4
20260504220008 73 234 1.0 6.0 0.00 0.00 0.00 21 998.5
20260504214547 73 233 2.0 6.0 0.00 0.00 0.00 24 998.7
20260504213005 74 261 1.0 5.0 0.00 0.00 0.00 29 999.0
20260504211536 73 264 1.0 5.0 0.00 0.00 0.00 29 999.1
20260504210004 73 223 3.0 7.0 0.00 0.00 0.00 30 999.4
20260504204534 74 305 1.0 3.0 0.00 0.00 0.00 26 999.5
20260504203009 73 184 1.0 4.0 0.00 0.00 0.00 32 999.6
20260504201529 73 264 2.0 8.0 0.00 0.00 0.00 28 999.8
20260504200058 72 223 2.0 5.0 0.00 0.00 0.00 29 1000.0
20260504194523 72 243 2.0 7.0 0.00 0.00 0.00 33 1000.2
20260504193053 72 271 3.0 7.0 0.00 0.00 0.00 32 1000.4
20260504191535 71 256 2.0 5.0 0.00 0.00 0.00 30 1000.5
20260504190107 70 294 2.0 6.0 0.00 0.00 0.00 34 1000.8
20260504184519 71 350 2.0 5.0 0.00 0.00 0.00 32 1000.8
20260504183051 71 284 2.0 5.0 0.00 0.00 0.00 34 1001.2
20260504181523 70 212 1.0 5.0 0.00 0.00 0.00 35 1001.4
20260504180045 70 157 1.0 3.0 0.00 0.00 0.00 30 1001.5
20260504174518 69 206 1.0 5.0 0.00 0.00 0.00 35 1001.7
20260504173042 68 301 2.0 5.0 0.00 0.00 0.00 34 1001.9
20260504171510 68 194 0.0 4.0 0.00 0.00 0.00 42 1002.1
20260504081541 59 26 0.0 3.0 0.00 0.00 0.00 24 1002.2